📊 Raw Sensor Data
Showing records 39276 to 39300 of 84,943 total
| ID | Distance (ft) | Battery V | Battery A | Int Temp (°F) | Int Humid (%) | Ext Temp (°F) | Solar V | RSSI | SNR | Time Stamp |
|---|---|---|---|---|---|---|---|---|---|---|
| 45680 | 15.3 | 3.83 | -5 | 53 | 43 | 54 | 0.00 | -66 | 8 | 07/08/2025 04:30 AM |
| 45679 | 15.3 | 3.83 | -5 | 53 | 43 | 55 | 0.00 | -67 | 8 | 07/08/2025 04:15 AM |
| 45678 | 15.3 | 3.89 | -5 | 53 | 43 | 55 | 0.00 | -67 | 8 | 07/08/2025 04:00 AM |
| 45677 | 15.3 | 3.83 | -5 | 53 | 43 | 55 | 0.00 | -70 | 8 | 07/08/2025 03:45 AM |
| 45676 | 15.3 | 3.83 | -5 | 53 | 44 | 54 | 0.00 | -67 | 8 | 07/08/2025 03:30 AM |
| 45675 | 15.3 | 3.83 | -5 | 53 | 44 | 54 | 0.00 | -66 | 8 | 07/08/2025 03:15 AM |
| 45674 | 15.3 | 3.84 | -5 | 54 | 44 | 55 | 0.00 | -67 | 8 | 07/08/2025 02:45 AM |
| 45673 | 15.3 | 3.89 | -5 | 54 | 44 | 55 | 0.00 | -67 | 8 | 07/08/2025 02:30 AM |
| 45672 | 15.3 | 3.89 | -5 | 55 | 44 | 56 | 0.00 | -67 | 9 | 07/08/2025 02:15 AM |
| 45671 | 15.3 | 3.84 | -5 | 55 | 44 | 56 | 0.00 | -66 | 8 | 07/08/2025 02:00 AM |
| 45670 | 15.3 | 3.84 | -5 | 55 | 44 | 56 | 0.00 | -66 | 8 | 07/08/2025 01:45 AM |
| 45669 | 15.3 | 3.84 | -5 | 56 | 44 | 57 | 0.00 | -66 | 8 | 07/08/2025 01:30 AM |
| 45668 | 15.3 | 3.89 | -5 | 56 | 44 | 57 | 0.00 | -67 | 8 | 07/08/2025 01:15 AM |
| 45667 | 15.3 | 3.90 | -5 | 56 | 45 | 57 | 0.00 | -67 | 8 | 07/08/2025 01:00 AM |
| 45666 | 15.3 | 3.84 | -5 | 56 | 45 | 57 | 0.00 | -66 | 8 | 07/08/2025 12:45 AM |
| 45665 | 15.3 | 3.84 | -5 | 57 | 45 | 58 | 0.00 | -68 | 8 | 07/08/2025 12:30 AM |
| 45664 | 15.3 | 3.90 | -5 | 57 | 45 | 58 | 0.00 | -68 | 8 | 07/08/2025 12:15 AM |
| 45663 | 15.3 | 3.84 | -5 | 58 | 45 | 59 | 0.00 | -67 | 8 | 07/08/2025 12:00 AM |
| 45662 | 15.3 | 3.84 | -5 | 58 | 45 | 59 | 0.00 | -69 | 8 | 07/07/2025 11:45 PM |
| 45661 | 15.4 | 3.84 | -5 | 59 | 45 | 59 | 0.10 | -67 | 8 | 07/07/2025 11:30 PM |
| 45660 | 15.4 | 3.84 | -5 | 59 | 46 | 60 | 0.00 | -68 | 7 | 07/07/2025 11:15 PM |
| 45659 | 15.3 | 3.90 | -5 | 59 | 46 | 60 | 0.00 | -67 | 8 | 07/07/2025 11:00 PM |
| 45658 | 15.4 | 3.84 | -5 | 60 | 46 | 60 | 0.10 | -68 | 8 | 07/07/2025 10:45 PM |
| 45657 | 15.4 | 3.84 | -5 | 60 | 47 | 61 | 0.00 | -68 | 8 | 07/07/2025 10:30 PM |
| 45656 | 15.4 | 3.85 | -5 | 60 | 47 | 61 | 0.00 | -69 | 8 | 07/07/2025 10:15 PM |